User: anonymous   Login
Location: Croydon
(51.3762°N, 0.0982°W)
Time: 23:15:25
(UTC+01:00)
Language:

AAUSAT CUBESAT 2 - Orbit

View from above orbital plane
View from above orbital plane
View from above satellite
View from above satellite

Ground track
Ground track

The orbit data is extracted from the following two-line orbital elements,

1 32788U 08021F   19285.92731357 +.00000563 +00000-0 +56640-4 0  9990
2 32788 097.4958 296.5114 0012142 162.6868 197.4769 14.94819616622188
Epoch (UTC): 12 October 2019 22:15:19
Eccentricity: 0.0012142
inclination: 97.4958°
perigee height: 574 km
apogee height: 591 km
right ascension of ascending node: 296.5114°
argument of perigee: 162.6868°
revolutions per day: 14.94819616
mean anomaly at epoch: 197.4769°
orbit number at epoch: 62218

The dashed part of the orbit path shows where the satellite is in the earth's shadow,  

DLR